Regional Weather Roundup
Issued by NWS Cleveland, OH

Home | Current Version | Previous Version | Text Only | Print | Product List | Glossary Off
Versions: 1 2 3 4 5 6 7 8 9 10 11 12 13 14 15 16 17 18 19 20 21 22 23 24 25 26 27 28 29 30 31 32 33 34 35 36 37 38 39 40 41 42 43 44 45 46 47 48 49 50

000
ASUS41 KCLE 191002
RWRCLE
OHIO REGIONAL WEATHER ROUNDUP
NATIONAL WEATHER SERVICE CLEVELAND, OH
500 AM EST SUN FEB 19 2017

NOTE: "FAIR" INDICATES FEW OR NO CLOUDS BELOW 12,000 FEET WITH NO
SIGNIFICANT WEATHER AND/OR OBSTRUCTIONS TO VISIBILITY.

OHZ001>008-015>018-024>027-034-035-043-044-191100-
   NORTHWEST OHIO

CITY           SKY/WX    TMP DP  RH WIND       PRES   REMARKS
DEFIANCE       CLEAR     40  37  89 CALM      29.91R
FINDLAY        CLEAR     44  40  85 W10       29.90R
TOLEDO EXPRESS CLEAR     41  39  93 SW6       29.89R
TOLEDO EXEC    PTCLDY    40  38  93 SW7       29.90R
LIMA           MOCLDY    45  44  97 SW8       29.92R FOG
$$

OHZ009>014-019>023-028>033-038-089-191100-
   NORTHEAST OHIO

CITY           SKY/WX    TMP DP  RH WIND       PRES   REMARKS
CLE-HOPKINS    CLEAR     46  39  76 SW8       29.90R
CLE-LAKEFRONT  CLEAR     47  40  76 SW13      29.86R
CUY CO. ARPT   NOT AVBL
LORAIN-ELYRIA  CLEAR     44  38  79 W8        29.89R
ASHTABULA      CLEAR     41  37  86 SW3       29.86R
AKRON-CANTON   CLEAR     40  37  89 SW7       29.88R
WOOSTER        CLEAR     43  40  89 SW10      29.89R
MANSFIELD      CLEAR     45  43  93 SW10      29.90R
YOUNGSTOWN     CLEAR     43  39  86 SW8       29.86R
$$

OHZ042-051>053-060>062-070>072-077>081-191100-
  SOUTHWEST OHIO

CITY           SKY/WX    TMP DP  RH WIND       PRES   REMARKS
CINC-COVINGTON PTCLDY    47  45  93 SW8       29.96R
CINC-LUNKEN    CLEAR     43  42  97 SW5       29.98R
HAMILTON       FOG       35  35 100 CALM      29.97R VSB 1/2
DAYTON         CLEAR     44  42  93 W8        29.95R
WRIGHT-PAT AFB CLEAR     44  44 100 CALM      29.95R
DAYTON GENERAL FOG       43  42  97 S6        29.95R VSB 1
WILMINGTON     CLEAR     44  43  96 SW6       29.95R FOG
$$

OHZ036-037-039>041-045>050-054>059-063>069-073>076-082>088-191100-
  CENTRAL AND SOUTHEAST OHIO

CITY           SKY/WX    TMP DP  RH WIND       PRES   REMARKS
COLUMBUS       PTCLDY    43  41  93 CALM      29.94R FOG
OSU AIRPORT    CLEAR     44  43  96 SW6       29.93R FOG
BOLTON FIELD   CLEAR     43  42  96 W3        29.94R
RICKENBACK AFB CLEAR     43  43 100 SW6       29.95R FOG
NEWARK         CLOUDY    46  44  93 SW7       29.93R FOG
MARION         CLEAR     42  40  92 SW5       29.92R FOG
LANCASTER      CLOUDY    49  45  86 SW5       29.95R
ZANESVILLE     CLOUDY    48  43  82 W3        29.93R
NEW PHILLY     NOT AVBL
$$




USA.gov is the U.S. government's official web portal to all federal, state and local government web resources and services.